Flag for Germany Weather past 2 weeks in Würselen, North Rhine-Westphalia, Germany

Now
55 °F

Light rain. Mostly cloudy.


Feels Like: 53 °F
Forecast: 52 / 67 °F
Wind: 8 mph from Southwest

Location: Geilenkirchen Airport

Current Time: Jun 2, 2015 at 5:50:07 AM

Latest Report: Jun 2, 2015 at 4:50 AM


Visibility: N/A

Pressure: 29.86 "Hg

Humidity: 72%

Dew point: 46 °F

Location of WürselenLocation

Historic Weather in Würselen — Graph

°F

Würselen temperature yesterday

Maximum temperature yesterday: 63 °F (at 4:50 PM)
Minimum temperature yesterday: 52 °F (at 2:50 AM)
Average temperature yesterday: 57 °F

Past Weeks' High & Low Weather Summary

 TemperatureHumidityPressure
High70 °F (May 18, 3:50 PM)100% (Jun 1, 1:50 AM)30.36 "Hg (Jun 1, 1:50 AM)
Low43 °F (May 18, 3:50 AM)38% (May 18, 3:50 PM)29.68 "Hg (May 18, 5:50 PM)
Average56 °F65%30.02 "Hg
* Reported May 18 3:50 AM — Jun 2 3:50 AM, Würselen, Weather by CustomWeather, © 2015

Note: Actual official high and low records may vary slightly from our data, if they occured in-between our weather recording intervals... More about our weather records

Advertising

Würselen weather history for previous 24 hours

 ConditionsComfort  
Time TempWeatherWind HumidityBarometerVisibility
3:50 AM
Tue, Jun 2
55 °FClear.7 mph63%29.89 "Hg10 mi
2:50 AM55 °FClear.6 mph63%29.92 "Hg10 mi
1:50 AM55 °FClear.6 mph63%29.92 "Hg10 mi
12:50 AM54 °FClear.5 mph63%29.95 "Hg10 mi
11:50 PM
Mon, Jun 1
55 °FClear.5 mph59%29.95 "Hg10 mi
10:50 PM57 °FClear.7 mph59%29.98 "Hg10 mi
9:50 PM59 °FSunny.3 mph55%29.98 "Hg10 mi
8:50 PM61 °FSunny.3 mph48%29.98 "Hg10 mi
7:50 PM63 °FSunny.7 mph42%29.98 "Hg10 mi
6:50 PM63 °FScattered clouds.12 mph45%30.01 "HgN/A
5:50 PM63 °FScattered clouds.12 mph45%30.01 "HgN/A
4:50 PM63 °FScattered clouds.10 mph42%30.04 "HgN/A
3:50 PM61 °FScattered clouds.12 mph52%30.04 "HgN/A
2:50 PM61 °FScattered clouds.10 mph52%30.04 "HgN/A
1:50 PM59 °FBroken clouds.12 mph55%30.04 "HgN/A
12:50 PM59 °FBroken clouds.8 mph59%30.04 "HgN/A
11:50 AM57 °FBroken clouds.10 mph67%30.04 "HgN/A
10:50 AM57 °FBroken clouds.7 mph67%30.04 "HgN/A
9:50 AM55 °FBroken clouds.6 mph72%30.04 "HgN/A
8:50 AM54 °FBroken clouds.7 mph88%30.04 "HgN/A
7:50 AM52 °FBroken clouds.3 mph94%30.01 "HgN/A
6:50 AM52 °FBroken clouds.3 mph94%30.01 "HgN/A
5:50 AM52 °FFog.2 mph94%29.98 "HgN/A
Weather by CustomWeather, © 2015

See weather overviewHow to use our weather pages